owner,sensor,date,latitude,longitude,air_pressure(mBar),qcFlag 
TABS,ioos:station:wmo:42045:1,2007-06-01T00:00:00Z,26.2168,-96.4998,992.54,11111222 
TABS,ioos:station:wmo:42045:1,2007-06-01T00:30:00Z,26.2168,-96.4998,986.02,11111222 
TABS,ioos:station:wmo:42045:1,2007-06-01T01:00:00Z,26.2168,-96.4998,982.37,11111222 
TABS,ioos:station:wmo:42045:1,2007-06-01T01:30:00Z,26.2168,-96.4998,981.34,11111222 
TABS,ioos:station:wmo:42045:1,2007-06-01T02:00:00Z,26.2168,-96.4998,981.24,11111222 
TABS,ioos:station:wmo:42045:1,2007-06-01T02:30:00Z,26.2168,-96.4998,981.2,11111222 
TABS,ioos:station:wmo:42045:1,2007-06-01T03:00:00Z,26.2168,-96.4998,981.07,11111222 
TABS,ioos:station:wmo:42045:1,2007-06-01T03:30:00Z,26.2168,-96.4998,981.01,11111222 
TABS,ioos:station:wmo:42045:1,2007-06-01T04:00:00Z,26.2168,-96.4998,980.7,11111222 
TABS,ioos:station:wmo:42045:1,2007-06-01T04:30:00Z,26.2168,-96.4998,980.54,11111222 
TABS,ioos:station:wmo:42045:1,2007-06-01T05:00:00Z,26.2168,-96.4998,980.41,11111222 
TABS,ioos:station:wmo:42045:1,2007-06-01T05:30:00Z,26.2168,-96.4998,980.36,11111222 
TABS,ioos:station:wmo:42045:1,2007-06-01T06:00:00Z,26.2168,-96.4998,980.11,11111222 
TABS,ioos:station:wmo:42045:1,2007-06-01T06:30:00Z,26.2168,-96.4998,980.22,11111222 
TABS,ioos:station:wmo:42045:1,2007-06-01T07:00:00Z,26.2168,-96.4998,980.05,11111222 
TABS,ioos:station:wmo:42045:1,2007-06-01T07:30:00Z,26.2168,-96.4998,979.92,11133222 
TABS,ioos:station:wmo:42045:1,2007-06-01T08:00:00Z,26.2168,-96.4998,979.73,11133222 
TABS,ioos:station:wmo:42045:1,2007-06-01T08:30:00Z,26.2168,-96.4998,979.75,11133222 
TABS,ioos:station:wmo:42045:1,2007-06-01T09:00:00Z,26.2168,-96.4998,979.2,11133222 
TABS,ioos:station:wmo:42045:1,2007-06-01T09:30:00Z,26.2168,-96.4998,979.11,11133222 
TABS,ioos:station:wmo:42045:1,2007-06-01T10:00:00Z,26.2168,-96.4998,978.98,11133222 
TABS,ioos:station:wmo:42045:1,2007-06-01T10:30:00Z,26.2168,-96.4998,979.09,11133222 
TABS,ioos:station:wmo:42045:1,2007-06-01T11:00:00Z,26.2168,-96.4998,978.83,11133222 
TABS,ioos:station:wmo:42045:1,2007-06-01T11:30:00Z,26.2168,-96.4998,979.04,11133222 
TABS,ioos:station:wmo:42045:1,2007-06-01T12:00:00Z,26.2168,-96.4998,984.34,11111222 
TABS,ioos:station:wmo:42045:1,2007-06-01T12:30:00Z,26.2168,-96.4998,990.95,11111222 
TABS,ioos:station:wmo:42045:1,2007-06-01T13:00:00Z,26.2168,-96.4998,996.25,11111222 
TABS,ioos:station:wmo:42045:1,2007-06-01T13:30:00Z,26.2168,-96.4998,1002.57,11111222 
TABS,ioos:station:wmo:42045:1,2007-06-01T14:00:00Z,26.2168,-96.4998,1002.15,11111222 
TABS,ioos:station:wmo:42045:1,2007-06-01T14:30:00Z,26.2168,-96.4998,1006.42,11111222 
TABS,ioos:station:wmo:42045:1,2007-06-01T15:00:00Z,26.2168,-96.4998,1005.4,11111222 
TABS,ioos:station:wmo:42045:1,2007-06-01T15:30:00Z,26.2168,-96.4998,1006.61,11111222 
TABS,ioos:station:wmo:42045:1,2007-06-01T16:00:00Z,26.2168,-96.4998,1006.97,11111222 
TABS,ioos:station:wmo:42045:1,2007-06-01T16:30:00Z,26.2168,-96.4998,1002.55,11111222 
TABS,ioos:station:wmo:42045:1,2007-06-01T17:00:00Z,26.2168,-96.4998,1002.25,11111222 
TABS,ioos:station:wmo:42045:1,2007-06-01T17:30:00Z,26.2168,-96.4998,996.61,11111222 
TABS,ioos:station:wmo:42045:1,2007-06-01T18:00:00Z,26.2168,-96.4998,989.82,11111222 
TABS,ioos:station:wmo:42045:1,2007-06-01T18:30:00Z,26.2168,-96.4998,987.44,11111222 
TABS,ioos:station:wmo:42045:1,2007-06-01T19:00:00Z,26.2168,-96.4998,988.69,11111222 
TABS,ioos:station:wmo:42045:1,2007-06-01T19:30:00Z,26.2168,-96.4998,989.7,11111222 
TABS,ioos:station:wmo:42045:1,2007-06-01T20:00:00Z,26.2168,-96.4998,992.96,11111222 
TABS,ioos:station:wmo:42045:1,2007-06-01T20:30:00Z,26.2168,-96.4998,993.16,11111222 
TABS,ioos:station:wmo:42045:1,2007-06-01T21:00:00Z,26.2168,-96.4998,994.13,11111222 
TABS,ioos:station:wmo:42045:1,2007-06-01T21:30:00Z,26.2168,-96.4998,999.58,11111222 
TABS,ioos:station:wmo:42045:1,2007-06-01T22:00:00Z,26.2168,-96.4998,997.77,11111222 
TABS,ioos:station:wmo:42045:1,2007-06-01T22:30:00Z,26.2168,-96.4998,1008.61,11111222 
TABS,ioos:station:wmo:42045:1,2007-06-01T23:00:00Z,26.2168,-96.4998,999.92,11111222 
TABS,ioos:station:wmo:42045:1,2007-06-01T23:30:00Z,26.2168,-96.4998,1000.28,11111222 
TABS,ioos:station:wmo:42045:1,2007-06-02T00:00:00Z,26.2168,-96.4998,994.03,11111222 
TABS,ioos:station:wmo:42045:1,2007-06-02T00:30:00Z,26.2168,-96.4998,989.93,11111222 
TABS,ioos:station:wmo:42045:1,2007-06-02T01:00:00Z,26.2168,-96.4998,983.6,11111222 
TABS,ioos:station:wmo:42045:1,2007-06-02T01:30:00Z,26.2168,-96.4998,981.89,11111222 
TABS,ioos:station:wmo:42045:1,2007-06-02T02:00:00Z,26.2168,-96.4998,981.49,11111222 
TABS,ioos:station:wmo:42045:1,2007-06-02T02:30:00Z,26.2168,-96.4998,981.57,11111222 
TABS,ioos:station:wmo:42045:1,2007-06-02T03:00:00Z,26.2168,-96.4998,981.6,11111222 
TABS,ioos:station:wmo:42045:1,2007-06-02T03:30:00Z,26.2168,-96.4998,981.57,11111222 
TABS,ioos:station:wmo:42045:1,2007-06-02T04:00:00Z,26.2168,-96.4998,981.48,11111222 
TABS,ioos:station:wmo:42045:1,2007-06-02T04:30:00Z,26.2168,-96.4998,981.4,11111222 
TABS,ioos:station:wmo:42045:1,2007-06-02T05:00:00Z,26.2168,-96.4998,981.21,11111222 
TABS,ioos:station:wmo:42045:1,2007-06-02T05:30:00Z,26.2168,-96.4998,981.33,11111222 
TABS,ioos:station:wmo:42045:1,2007-06-02T06:00:00Z,26.2168,-96.4998,981.14,11111222 
TABS,ioos:station:wmo:42045:1,2007-06-02T06:30:00Z,26.2168,-96.4998,981.07,11111222 
TABS,ioos:station:wmo:42045:1,2007-06-02T07:00:00Z,26.2168,-96.4998,981.16,11111222 
TABS,ioos:station:wmo:42045:1,2007-06-02T07:30:00Z,26.2168,-96.4998,981.22,11111222 
TABS,ioos:station:wmo:42045:1,2007-06-02T08:00:00Z,26.2168,-96.4998,980.9,11111222 
TABS,ioos:station:wmo:42045:1,2007-06-02T08:30:00Z,26.2168,-96.4998,980.7,11111222 
TABS,ioos:station:wmo:42045:1,2007-06-02T09:00:00Z,26.2168,-96.4998,980.76,11111222 
TABS,ioos:station:wmo:42045:1,2007-06-02T09:30:00Z,26.2168,-96.4998,980.97,11111222 
TABS,ioos:station:wmo:42045:1,2007-06-02T10:00:00Z,26.2168,-96.4998,981.05,11111222 
TABS,ioos:station:wmo:42045:1,2007-06-02T10:30:00Z,26.2168,-96.4998,980.87,11111222 
TABS,ioos:station:wmo:42045:1,2007-06-02T11:00:00Z,26.2168,-96.4998,980.7,11111222 
TABS,ioos:station:wmo:42045:1,2007-06-02T11:30:00Z,26.2168,-96.4998,980.88,11111222 
TABS,ioos:station:wmo:42045:1,2007-06-02T12:00:00Z,26.2168,-96.4998,982.18,11111222 
TABS,ioos:station:wmo:42045:1,2007-06-02T12:30:00Z,26.2168,-96.4998,988.74,11111222 
TABS,ioos:station:wmo:42045:1,2007-06-02T13:00:00Z,26.2168,-96.4998,996.05,11111222 
TABS,ioos:station:wmo:42045:1,2007-06-02T13:30:00Z,26.2168,-96.4998,1003.61,11111222 
TABS,ioos:station:wmo:42045:1,2007-06-02T14:00:00Z,26.2168,-96.4998,1009.47,11111222 
TABS,ioos:station:wmo:42045:1,2007-06-02T14:30:00Z,26.2168,-96.4998,990.49,11111222 
TABS,ioos:station:wmo:42045:1,2007-06-02T15:00:00Z,26.2168,-96.4998,1001.53,11111222 
TABS,ioos:station:wmo:42045:1,2007-06-02T15:30:00Z,26.2168,-96.4998,1001.86,11111222 
TABS,ioos:station:wmo:42045:1,2007-06-02T16:00:00Z,26.2168,-96.4998,1002.87,11111222 
TABS,ioos:station:wmo:42045:1,2007-06-02T16:30:00Z,26.2168,-96.4998,1001.08,11111222 
TABS,ioos:station:wmo:42045:1,2007-06-02T17:00:00Z,26.2168,-96.4998,998.21,11111222 
TABS,ioos:station:wmo:42045:1,2007-06-02T17:30:00Z,26.2168,-96.4998,994.24,11111222 
TABS,ioos:station:wmo:42045:1,2007-06-02T18:00:00Z,26.2168,-96.4998,992.77,11111222 
TABS,ioos:station:wmo:42045:1,2007-06-02T18:30:00Z,26.2168,-96.4998,991.61,11111222 
TABS,ioos:station:wmo:42045:1,2007-06-02T19:00:00Z,26.2168,-96.4998,991.49,11111222 
TABS,ioos:station:wmo:42045:1,2007-06-02T19:30:00Z,26.2168,-96.4998,995.26,11111222 
TABS,ioos:station:wmo:42045:1,2007-06-02T20:00:00Z,26.2168,-96.4998,998.59,11111222 
TABS,ioos:station:wmo:42045:1,2007-06-02T20:30:00Z,26.2168,-96.4998,1000.81,11111222 
TABS,ioos:station:wmo:42045:1,2007-06-02T21:00:00Z,26.2168,-96.4998,1007.29,11111222 
TABS,ioos:station:wmo:42045:1,2007-06-02T21:30:00Z,26.2168,-96.4998,1010.04,11111222 
TABS,ioos:station:wmo:42045:1,2007-06-02T22:00:00Z,26.2168,-96.4998,1010.32,11111222 
TABS,ioos:station:wmo:42045:1,2007-06-02T22:30:00Z,26.2168,-96.4998,1008.33,11111222 
TABS,ioos:station:wmo:42045:1,2007-06-02T23:00:00Z,26.2168,-96.4998,1011.21,11111222 
TABS,ioos:station:wmo:42045:1,2007-06-02T23:30:00Z,26.2168,-96.4998,1014.06,11111222 
TABS,ioos:station:wmo:42045:1,2007-06-03T00:00:00Z,26.2168,-96.4998,1007.0,11111222 
TABS,ioos:station:wmo:42045:1,2007-06-03T00:30:00Z,26.2168,-96.4998,992.28,11111222 
TABS,ioos:station:wmo:42045:1,2007-06-03T01:00:00Z,26.2168,-96.4998,985.1,11111222 
TABS,ioos:station:wmo:42045:1,2007-06-03T01:30:00Z,26.2168,-96.4998,982.82,11111222 
TABS,ioos:station:wmo:42045:1,2007-06-03T02:00:00Z,26.2168,-96.4998,982.24,11111222 
TABS,ioos:station:wmo:42045:1,2007-06-03T02:30:00Z,26.2168,-96.4998,982.18,11111222 
TABS,ioos:station:wmo:42045:1,2007-06-03T03:00:00Z,26.2168,-96.4998,982.01,11111222 
TABS,ioos:station:wmo:42045:1,2007-06-03T03:30:00Z,26.2168,-96.4998,981.89,11111222 
TABS,ioos:station:wmo:42045:1,2007-06-03T04:00:00Z,26.2168,-96.4998,981.74,11111222 
TABS,ioos:station:wmo:42045:1,2007-06-03T04:30:00Z,26.2168,-96.4998,981.78,11111222 
TABS,ioos:station:wmo:42045:1,2007-06-03T05:00:00Z,26.2168,-96.4998,981.85,11111222 
TABS,ioos:station:wmo:42045:1,2007-06-03T05:30:00Z,26.2168,-96.4998,981.65,11111222 
TABS,ioos:station:wmo:42045:1,2007-06-03T06:00:00Z,26.2168,-96.4998,981.51,11111222 
TABS,ioos:station:wmo:42045:1,2007-06-03T06:30:00Z,26.2168,-96.4998,981.26,11111222 
TABS,ioos:station:wmo:42045:1,2007-06-03T07:00:00Z,26.2168,-96.4998,981.33,11111222 
TABS,ioos:station:wmo:42045:1,2007-06-03T07:30:00Z,26.2168,-96.4998,981.51,11111222 
TABS,ioos:station:wmo:42045:1,2007-06-03T08:00:00Z,26.2168,-96.4998,981.27,11111222 
TABS,ioos:station:wmo:42045:1,2007-06-03T08:30:00Z,26.2168,-96.4998,980.61,11111222 
TABS,ioos:station:wmo:42045:1,2007-06-03T09:00:00Z,26.2168,-96.4998,980.46,11111222 
TABS,ioos:station:wmo:42045:1,2007-06-03T09:30:00Z,26.2168,-96.4998,980.16,11111222 
TABS,ioos:station:wmo:42045:1,2007-06-03T10:00:00Z,26.2168,-96.4998,980.14,11111222 
TABS,ioos:station:wmo:42045:1,2007-06-03T10:30:00Z,26.2168,-96.4998,980.15,11111222 
TABS,ioos:station:wmo:42045:1,2007-06-03T11:00:00Z,26.2168,-96.4998,980.03,11111222 
TABS,ioos:station:wmo:42045:1,2007-06-03T11:30:00Z,26.2168,-96.4998,980.0,11111222 
TABS,ioos:station:wmo:42045:1,2007-06-03T12:00:00Z,26.2168,-96.4998,985.43,11111222 
TABS,ioos:station:wmo:42045:1,2007-06-03T12:30:00Z,26.2168,-96.4998,992.97,11111222 
TABS,ioos:station:wmo:42045:1,2007-06-03T13:00:00Z,26.2168,-96.4998,999.79,11111222 
TABS,ioos:station:wmo:42045:1,2007-06-03T13:30:00Z,26.2168,-96.4998,1003.03,11111222 
TABS,ioos:station:wmo:42045:1,2007-06-03T14:00:00Z,26.2168,-96.4998,1002.78,11111222 
TABS,ioos:station:wmo:42045:1,2007-06-03T14:30:00Z,26.2168,-96.4998,1001.91,11111222 
TABS,ioos:station:wmo:42045:1,2007-06-03T15:00:00Z,26.2168,-96.4998,1001.64,11111222 
TABS,ioos:station:wmo:42045:1,2007-06-03T15:30:00Z,26.2168,-96.4998,1002.89,11111222 
TABS,ioos:station:wmo:42045:1,2007-06-03T16:00:00Z,26.2168,-96.4998,1004.03,11111222 
TABS,ioos:station:wmo:42045:1,2007-06-03T16:30:00Z,26.2168,-96.4998,1001.98,11111222 
TABS,ioos:station:wmo:42045:1,2007-06-03T17:00:00Z,26.2168,-96.4998,1002.22,11111222 
TABS,ioos:station:wmo:42045:1,2007-06-03T17:30:00Z,26.2168,-96.4998,998.48,11111222 
TABS,ioos:station:wmo:42045:1,2007-06-03T18:00:00Z,26.2168,-96.4998,993.05,11111222 
TABS,ioos:station:wmo:42045:1,2007-06-03T18:30:00Z,26.2168,-96.4998,991.9,11111222 
TABS,ioos:station:wmo:42045:1,2007-06-03T19:00:00Z,26.2168,-96.4998,991.31,11111222 
TABS,ioos:station:wmo:42045:1,2007-06-03T19:30:00Z,26.2168,-96.4998,994.35,11111222 
TABS,ioos:station:wmo:42045:1,2007-06-03T20:00:00Z,26.2168,-96.4998,1000.43,11111222 
TABS,ioos:station:wmo:42045:1,2007-06-03T20:30:00Z,26.2168,-96.4998,1002.77,11111222 
TABS,ioos:station:wmo:42045:1,2007-06-03T21:00:00Z,26.2168,-96.4998,1003.12,11111222 
TABS,ioos:station:wmo:42045:1,2007-06-03T21:30:00Z,26.2168,-96.4998,1004.51,11111222 
TABS,ioos:station:wmo:42045:1,2007-06-03T22:00:00Z,26.2168,-96.4998,1005.13,11111222 
TABS,ioos:station:wmo:42045:1,2007-06-03T22:30:00Z,26.2168,-96.4998,1005.24,11111222 
TABS,ioos:station:wmo:42045:1,2007-06-03T23:00:00Z,26.2168,-96.4998,1005.58,11111222 
TABS,ioos:station:wmo:42045:1,2007-06-03T23:30:00Z,26.2168,-96.4998,1002.8,11111222 
TABS,ioos:station:wmo:42045:1,2007-06-04T00:00:00Z,26.2168,-96.4998,999.17,11111222 
TABS,ioos:station:wmo:42045:1,2007-06-04T00:30:00Z,26.2168,-96.4998,991.32,11111222 
TABS,ioos:station:wmo:42045:1,2007-06-04T01:00:00Z,26.2168,-96.4998,984.61,11111222 
TABS,ioos:station:wmo:42045:1,2007-06-04T01:30:00Z,26.2168,-96.4998,983.52,11111222 
TABS,ioos:station:wmo:42045:1,2007-06-04T02:00:00Z,26.2168,-96.4998,983.19,11111222 
TABS,ioos:station:wmo:42045:1,2007-06-04T02:30:00Z,26.2168,-96.4998,983.15,11111222 
TABS,ioos:station:wmo:42045:1,2007-06-04T03:00:00Z,26.2168,-96.4998,982.81,11111222 
TABS,ioos:station:wmo:42045:1,2007-06-04T03:30:00Z,26.2168,-96.4998,982.67,11111222 
TABS,ioos:station:wmo:42045:1,2007-06-04T04:00:00Z,26.2168,-96.4998,982.5,11111222 
TABS,ioos:station:wmo:42045:1,2007-06-04T04:30:00Z,26.2168,-96.4998,982.57,11111222 
TABS,ioos:station:wmo:42045:1,2007-06-04T05:00:00Z,26.2168,-96.4998,982.51,11111222 
TABS,ioos:station:wmo:42045:1,2007-06-04T05:30:00Z,26.2168,-96.4998,982.49,11111222 
TABS,ioos:station:wmo:42045:1,2007-06-04T06:00:00Z,26.2168,-96.4998,982.4,11111222 
TABS,ioos:station:wmo:42045:1,2007-06-04T06:30:00Z,26.2168,-96.4998,982.41,11111222 
TABS,ioos:station:wmo:42045:1,2007-06-04T07:00:00Z,26.2168,-96.4998,982.14,11111222 
TABS,ioos:station:wmo:42045:1,2007-06-04T07:30:00Z,26.2168,-96.4998,981.92,11111222 
TABS,ioos:station:wmo:42045:1,2007-06-04T08:00:00Z,26.2168,-96.4998,981.63,11111222 
TABS,ioos:station:wmo:42045:1,2007-06-04T08:30:00Z,26.2168,-96.4998,981.39,11111222 
TABS,ioos:station:wmo:42045:1,2007-06-04T09:00:00Z,26.2168,-96.4998,981.4,11111222 
TABS,ioos:station:wmo:42045:1,2007-06-04T09:30:00Z,26.2168,-96.4998,981.53,11111222 
TABS,ioos:station:wmo:42045:1,2007-06-04T10:00:00Z,26.2168,-96.4998,981.34,11111222 
TABS,ioos:station:wmo:42045:1,2007-06-04T10:30:00Z,26.2168,-96.4998,981.28,11111222 
TABS,ioos:station:wmo:42045:1,2007-06-04T11:00:00Z,26.2168,-96.4998,981.33,11111222 
TABS,ioos:station:wmo:42045:1,2007-06-04T11:30:00Z,26.2168,-96.4998,981.6,11111222 
TABS,ioos:station:wmo:42045:1,2007-06-04T12:00:00Z,26.2168,-96.4998,985.97,11111222 
TABS,ioos:station:wmo:42045:1,2007-06-04T12:30:00Z,26.2168,-96.4998,988.68,11111222 
TABS,ioos:station:wmo:42045:1,2007-06-04T13:00:00Z,26.2168,-96.4998,992.55,11111222 
TABS,ioos:station:wmo:42045:1,2007-06-04T13:30:00Z,26.2168,-96.4998,995.66,11111222 
TABS,ioos:station:wmo:42045:1,2007-06-04T14:00:00Z,26.2168,-96.4998,997.37,11111222 
TABS,ioos:station:wmo:42045:1,2007-06-04T14:30:00Z,26.2168,-96.4998,1000.61,11111222 
TABS,ioos:station:wmo:42045:1,2007-06-04T15:00:00Z,26.2168,-96.4998,999.84,11111222 
TABS,ioos:station:wmo:42045:1,2007-06-04T15:30:00Z,26.2168,-96.4998,996.93,11111222 
TABS,ioos:station:wmo:42045:1,2007-06-04T16:00:00Z,26.2168,-96.4998,997.62,11111222 
TABS,ioos:station:wmo:42045:1,2007-06-04T16:30:00Z,26.2168,-96.4998,1000.53,11111222 
TABS,ioos:station:wmo:42045:1,2007-06-04T17:00:00Z,26.2168,-96.4998,995.07,11111222 
TABS,ioos:station:wmo:42045:1,2007-06-04T17:30:00Z,26.2168,-96.4998,999.22,11111222 
TABS,ioos:station:wmo:42045:1,2007-06-04T18:00:00Z,26.2168,-96.4998,1000.07,11111222 
TABS,ioos:station:wmo:42045:1,2007-06-04T18:30:00Z,26.2168,-96.4998,997.43,11111222 
TABS,ioos:station:wmo:42045:1,2007-06-04T19:00:00Z,26.2168,-96.4998,1000.68,11111222 
TABS,ioos:station:wmo:42045:1,2007-06-04T19:30:00Z,26.2168,-96.4998,1000.39,11111222 
TABS,ioos:station:wmo:42045:1,2007-06-04T20:00:00Z,26.2168,-96.4998,1006.95,11111222 
TABS,ioos:station:wmo:42045:1,2007-06-04T20:30:00Z,26.2168,-96.4998,1012.0,11111222 
TABS,ioos:station:wmo:42045:1,2007-06-04T21:00:00Z,26.2168,-96.4998,1012.44,11111222 
TABS,ioos:station:wmo:42045:1,2007-06-04T21:30:00Z,26.2168,-96.4998,1012.1,11111222 
TABS,ioos:station:wmo:42045:1,2007-06-04T22:00:00Z,26.2168,-96.4998,1012.81,11111222 
TABS,ioos:station:wmo:42045:1,2007-06-04T22:30:00Z,26.2168,-96.4998,1013.21,11111222 
TABS,ioos:station:wmo:42045:1,2007-06-04T23:00:00Z,26.2168,-96.4998,1011.65,11111222 
TABS,ioos:station:wmo:42045:1,2007-06-04T23:30:00Z,26.2168,-96.4998,1009.51,11111222 
TABS,ioos:station:wmo:42045:1,2007-06-05T00:00:00Z,26.2168,-96.4998,997.23,11111222 
TABS,ioos:station:wmo:42045:1,2007-06-05T00:30:00Z,26.2168,-96.4998,990.55,11111222 
TABS,ioos:station:wmo:42045:1,2007-06-05T01:00:00Z,26.2168,-96.4998,985.71,11111222 
TABS,ioos:station:wmo:42045:1,2007-06-05T01:30:00Z,26.2168,-96.4998,984.52,11111222 
TABS,ioos:station:wmo:42045:1,2007-06-05T02:00:00Z,26.2168,-96.4998,984.46,11111222 
TABS,ioos:station:wmo:42045:1,2007-06-05T02:30:00Z,26.2168,-96.4998,984.33,11111222 
TABS,ioos:station:wmo:42045:1,2007-06-05T03:00:00Z,26.2168,-96.4998,984.44,11111222 
TABS,ioos:station:wmo:42045:1,2007-06-05T03:30:00Z,26.2168,-96.4998,984.61,11111222 
TABS,ioos:station:wmo:42045:1,2007-06-05T04:00:00Z,26.2168,-96.4998,984.68,11111222 
TABS,ioos:station:wmo:42045:1,2007-06-05T04:30:00Z,26.2168,-96.4998,984.77,11111222 
TABS,ioos:station:wmo:42045:1,2007-06-05T05:00:00Z,26.2168,-96.4998,984.8,11111222 
TABS,ioos:station:wmo:42045:1,2007-06-05T05:30:00Z,26.2168,-96.4998,985.08,11111222 
TABS,ioos:station:wmo:42045:1,2007-06-05T06:00:00Z,26.2168,-96.4998,985.02,11111222 
TABS,ioos:station:wmo:42045:1,2007-06-05T06:30:00Z,26.2168,-96.4998,984.92,11111222 
TABS,ioos:station:wmo:42045:1,2007-06-05T07:00:00Z,26.2168,-96.4998,984.83,11111222 
TABS,ioos:station:wmo:42045:1,2007-06-05T07:30:00Z,26.2168,-96.4998,984.7,11111222 
TABS,ioos:station:wmo:42045:1,2007-06-05T08:00:00Z,26.2168,-96.4998,984.62,11111222 
TABS,ioos:station:wmo:42045:1,2007-06-05T08:30:00Z,26.2168,-96.4998,984.33,11111222 
TABS,ioos:station:wmo:42045:1,2007-06-05T09:00:00Z,26.2168,-96.4998,984.2,11111222 
TABS,ioos:station:wmo:42045:1,2007-06-05T09:30:00Z,26.2168,-96.4998,984.36,11111222 
TABS,ioos:station:wmo:42045:1,2007-06-05T10:00:00Z,26.2168,-96.4998,984.14,11111222 
TABS,ioos:station:wmo:42045:1,2007-06-05T10:30:00Z,26.2168,-96.4998,984.07,11111222 
TABS,ioos:station:wmo:42045:1,2007-06-05T11:00:00Z,26.2168,-96.4998,984.06,11111222 
TABS,ioos:station:wmo:42045:1,2007-06-05T11:30:00Z,26.2168,-96.4998,983.65,11111222 
TABS,ioos:station:wmo:42045:1,2007-06-05T12:00:00Z,26.2168,-96.4998,985.58,11111222 
TABS,ioos:station:wmo:42045:1,2007-06-05T12:30:00Z,26.2168,-96.4998,991.67,11111222 
TABS,ioos:station:wmo:42045:1,2007-06-05T13:00:00Z,26.2168,-96.4998,996.43,11111222 
TABS,ioos:station:wmo:42045:1,2007-06-05T13:30:00Z,26.2168,-96.4998,1000.9,11111222 
TABS,ioos:station:wmo:42045:1,2007-06-05T14:00:00Z,26.2168,-96.4998,1001.74,11111222 
TABS,ioos:station:wmo:42045:1,2007-06-05T14:30:00Z,26.2168,-96.4998,1002.64,11111222 
TABS,ioos:station:wmo:42045:1,2007-06-05T15:00:00Z,26.2168,-96.4998,1003.98,11111222 
TABS,ioos:station:wmo:42045:1,2007-06-05T15:30:00Z,26.2168,-96.4998,1003.45,11111222 
TABS,ioos:station:wmo:42045:1,2007-06-05T16:00:00Z,26.2168,-96.4998,1003.58,11111222 
TABS,ioos:station:wmo:42045:1,2007-06-05T16:30:00Z,26.2168,-96.4998,1002.22,11111222 
TABS,ioos:station:wmo:42045:1,2007-06-05T17:00:00Z,26.2168,-96.4998,1001.4,11111222 
TABS,ioos:station:wmo:42045:1,2007-06-05T17:30:00Z,26.2168,-96.4998,1003.2,11111222 
TABS,ioos:station:wmo:42045:1,2007-06-05T18:00:00Z,26.2168,-96.4998,995.5,11111222 
TABS,ioos:station:wmo:42045:1,2007-06-05T18:30:00Z,26.2168,-96.4998,986.17,11111222 
TABS,ioos:station:wmo:42045:1,2007-06-05T19:00:00Z,26.2168,-96.4998,987.11,11111222 
TABS,ioos:station:wmo:42045:1,2007-06-05T19:30:00Z,26.2168,-96.4998,995.1,11111222 
TABS,ioos:station:wmo:42045:1,2007-06-05T20:00:00Z,26.2168,-96.4998,1000.36,11111222 
TABS,ioos:station:wmo:42045:1,2007-06-05T20:30:00Z,26.2168,-96.4998,1002.74,11111222 
TABS,ioos:station:wmo:42045:1,2007-06-05T21:00:00Z,26.2168,-96.4998,1003.94,11111222 
TABS,ioos:station:wmo:42045:1,2007-06-05T21:30:00Z,26.2168,-96.4998,1009.34,11111222 
TABS,ioos:station:wmo:42045:1,2007-06-05T22:00:00Z,26.2168,-96.4998,995.28,11111222 
TABS,ioos:station:wmo:42045:1,2007-06-05T22:30:00Z,26.2168,-96.4998,992.83,11111222 
TABS,ioos:station:wmo:42045:1,2007-06-05T23:00:00Z,26.2168,-96.4998,992.56,11111222 
TABS,ioos:station:wmo:42045:1,2007-06-05T23:30:00Z,26.2168,-96.4998,991.83,11111222 
TABS,ioos:station:wmo:42045:1,2007-06-06T00:00:00Z,26.2168,-96.4998,992.46,11111222 
TABS,ioos:station:wmo:42045:1,2007-06-06T00:30:00Z,26.2168,-96.4998,990.45,11111222 
TABS,ioos:station:wmo:42045:1,2007-06-06T01:00:00Z,26.2168,-96.4998,986.36,11111222 
TABS,ioos:station:wmo:42045:1,2007-06-06T01:30:00Z,26.2168,-96.4998,984.6,11111222 
TABS,ioos:station:wmo:42045:1,2007-06-06T02:00:00Z,26.2168,-96.4998,984.58,11111222 
TABS,ioos:station:wmo:42045:1,2007-06-06T02:30:00Z,26.2168,-96.4998,984.66,11111222 
TABS,ioos:station:wmo:42045:1,2007-06-06T03:00:00Z,26.2168,-96.4998,984.41,11111222 
TABS,ioos:station:wmo:42045:1,2007-06-06T03:30:00Z,26.2168,-96.4998,984.53,11111222 
TABS,ioos:station:wmo:42045:1,2007-06-06T04:00:00Z,26.2168,-96.4998,984.31,11111222 
TABS,ioos:station:wmo:42045:1,2007-06-06T04:30:00Z,26.2168,-96.4998,984.1,11111222 
TABS,ioos:station:wmo:42045:1,2007-06-06T05:00:00Z,26.2168,-96.4998,983.86,11111222 
TABS,ioos:station:wmo:42045:1,2007-06-06T05:30:00Z,26.2168,-96.4998,983.56,11111222 
TABS,ioos:station:wmo:42045:1,2007-06-06T06:00:00Z,26.2168,-96.4998,983.25,11111222 
TABS,ioos:station:wmo:42045:1,2007-06-06T06:30:00Z,26.2168,-96.4998,983.2,11111222 
TABS,ioos:station:wmo:42045:1,2007-06-06T07:00:00Z,26.2168,-96.4998,983.79,11111222 
TABS,ioos:station:wmo:42045:1,2007-06-06T07:30:00Z,26.2168,-96.4998,983.97,11111222 
TABS,ioos:station:wmo:42045:1,2007-06-06T08:00:00Z,26.2168,-96.4998,984.57,11111222 
TABS,ioos:station:wmo:42045:1,2007-06-06T08:30:00Z,26.2168,-96.4998,984.74,11111222 
TABS,ioos:station:wmo:42045:1,2007-06-06T09:00:00Z,26.2168,-96.4998,984.82,11111222 
TABS,ioos:station:wmo:42045:1,2007-06-06T09:30:00Z,26.2168,-96.4998,984.68,11111222 
TABS,ioos:station:wmo:42045:1,2007-06-06T10:00:00Z,26.2168,-96.4998,984.58,11111222 
TABS,ioos:station:wmo:42045:1,2007-06-06T10:30:00Z,26.2168,-96.4998,984.47,11111222 
TABS,ioos:station:wmo:42045:1,2007-06-06T11:00:00Z,26.2168,-96.4998,984.15,11111222 
TABS,ioos:station:wmo:42045:1,2007-06-06T11:30:00Z,26.2168,-96.4998,984.31,11111222 
TABS,ioos:station:wmo:42045:1,2007-06-06T12:00:00Z,26.2168,-96.4998,985.02,11111222 
TABS,ioos:station:wmo:42045:1,2007-06-06T12:30:00Z,26.2168,-96.4998,986.99,11111222 
TABS,ioos:station:wmo:42045:1,2007-06-06T13:00:00Z,26.2168,-96.4998,991.25,11111222 
TABS,ioos:station:wmo:42045:1,2007-06-06T13:30:00Z,26.2168,-96.4998,996.4,11111222 
TABS,ioos:station:wmo:42045:1,2007-06-06T14:00:00Z,26.2168,-96.4998,1003.66,11111222 
TABS,ioos:station:wmo:42045:1,2007-06-06T14:30:00Z,26.2168,-96.4998,1004.04,11111222 
TABS,ioos:station:wmo:42045:1,2007-06-06T15:00:00Z,26.2168,-96.4998,1002.73,11111222 
TABS,ioos:station:wmo:42045:1,2007-06-06T15:30:00Z,26.2168,-96.4998,1003.67,11111222 
TABS,ioos:station:wmo:42045:1,2007-06-06T16:00:00Z,26.2168,-96.4998,1004.52,11111222 
TABS,ioos:station:wmo:42045:1,2007-06-06T16:30:00Z,26.2168,-96.4998,1003.32,11111222 
TABS,ioos:station:wmo:42045:1,2007-06-06T17:00:00Z,26.2168,-96.4998,1003.81,11111222 
TABS,ioos:station:wmo:42045:1,2007-06-06T17:30:00Z,26.2168,-96.4998,1001.32,11111222 
TABS,ioos:station:wmo:42045:1,2007-06-06T18:00:00Z,26.2168,-96.4998,997.02,11111222 
TABS,ioos:station:wmo:42045:1,2007-06-06T18:30:00Z,26.2168,-96.4998,993.77,11111222 
TABS,ioos:station:wmo:42045:1,2007-06-06T19:00:00Z,26.2168,-96.4998,993.21,11111222 
TABS,ioos:station:wmo:42045:1,2007-06-06T19:30:00Z,26.2168,-96.4998,994.22,11111222 
TABS,ioos:station:wmo:42045:1,2007-06-06T20:00:00Z,26.2168,-96.4998,994.62,11111222 